Location: Ahstedt
(52.2048°N, 10.1060°E)
Time: 00:52:14
(UTC+00:00)

Gbstr 26 Del rocket - Pass Details

Date: 18 January 2026
Orbit: 490 x 1217 km, 51.8° (Epoch: 17 February)

Event Time Altitude Azimuth Distance (km) Brightness Sun altitude
Exits shadow 06:15:47 - 260° (W) 3,452 6.3 -9.4°
Reaches altitude 10° 06:17:05 10° 260° (W) 2,995 6.0 -9.2°
Maximum altitude 06:24:22 85° 174° (S) 1,002 4.1 -8.2°
Drops below altitude 10° 06:30:23 10° 86° (E) 2,504 7.3 -7.3°
Sets 06:32:40 0° 86° (E) 3,332 8.0 -7.0°
